Location: Cabeza de los Veneras
(40.2000°N, 5.2000°W)
Time: 11:48:41
(UTC+00:00)

Cosmos 1844 Rocket - Pass Details

Date: 18 April 2024
Orbit: 825 x 843 km, 71.0° (Epoch: 22 May)

Event Time Altitude Azimuth Distance (km) Brightness Sun altitude
Rises 23:26:35 0° 344° (NNW) 3,386 6.8 -37.1°
Reaches altitude 10° 23:29:18 10° 355° (N) 2,445 5.8 -37.2°
Enters shadow 23:32:15 25° 20° (NNE) 1,612 4.5 -37.4°
